Powrót do katalogu

STARLINK-11409

AktywnyŁącznośćVLEO
NORAD 63061·PAYLOAD·🇺🇸 United States

Wystrzelony Feb 21, 2025 z Cape Canaveral Space Force Station

Loading…

Następne Przeloty (najbliższe 24 godziny)

TLE

ŚwieżeSource: CelesTrak SupGP

Epoka: Sep 15, 2026, 03:53 UTC

1 63061C 25035K   26258.16229167  .00065040  00000+0  50538-3 0  2584
2 63061  42.9999 313.4283 0001468 264.6724 256.4326 15.70796478    17

Śledź STARLINK-11409 w czasie rzeczywistym z AllMySat

Download on the App Store